Weather History for New Orleans Lakefront, LA

Change the Weather History Date:

Friday, August 2, 2013

  Actual Average Record
Temperature  
Mean Temperature 86 °F 83 °F  
Max Temperature 95 °F 92 °F 100 °F (2010)
Min Temperature 77 °F 75 °F 68 °F (1992)
Degree Days  
Heating Degree Days 0 0  
Month to date heating degree days 0 0  
Since 1 June heating degree days 0 0  
Since 1 July heating degree days 0 0  
Cooling Degree Days 21 18  
Month to date cooling degree days 41 36  
Year to date cooling degree days 1621 1716  
Since 1 June cooling degree days 1128 1097  
Growing Degree Days 37 (Base 50)    
Moisture  
Dew Point 74 °F    
Average Humidity 68    
Maximum Humidity 91    
Minimum Humidity 44    
Precipitation  
Precipitation 0.00 in 0.19 in 2.25 in (1960)
Month to date precipitation T 0.39  
Year to date precipitation 43.09 38.62  
Snow  
Snow 0.00 in - - ()
Month to date snowfall 0.0  
Since 1 June snowfall 0.0  
Since 1 July snowfall 0.0  
Snow Depth 0.00 in    
Sea Level Pressure  
Sea Level Pressure 29.96 in    
Wind  
Wind Speed 5 mph (East)    
Max Wind Speed 13 mph    
Max Gust Speed 16 mph    
Visibility 10 miles    
Events      
T = Trace of Precipitation, MM = Missing Value Source: NWS Daily Summary

Daily Weather History Graph

Daily Weather History Graph

Search for Another Location

Airport:

Trip Planner

Search our weather history database for the weather conditions in past years. The results will help you decide how hot, cold, wet, or windy it might be!

Date:

Astronomy

Aug. 02, 2013 Rise Set
Actual Time 6:19 AM CDT 7:52 PM CDT
Civil Twilight 5:53 AM CDT 8:18 PM CDT
Nautical Twilight 5:22 AM CDT 8:49 PM CDT
Astronomical Twilight 4:50 AM CDT 9:21 PM CDT
Moon 2:43 AM CDT (8/2) 4:47 PM CDT (8/2)
Length of Visible Light 14h 24m
Length of Day
13h 32m
Waning Crescent, 15% of the Moon is Illuminated
Aug 2
Waning Crescent
Aug 6
New
Aug 14
First Quarter
Aug 20
Full
Aug 28
Last Quarter

Hourly Weather History & Observations

Time (CDT) Temp. Heat Index Dew Point Humidity Pressure Visibility Wind Dir Wind Speed Gust Speed Precip Events Conditions
12:53 AM 84.0 °F 89.6 °F 72.0 °F 67% 29.94 in 10.0 mi East 5.8 mph - N/A   Clear
1:53 AM 82.9 °F 89.4 °F 73.9 °F 74% 29.93 in 10.0 mi SE 4.6 mph - N/A   Clear
2:53 AM 82.0 °F 87.9 °F 73.9 °F 76% 29.92 in 10.0 mi SE 3.5 mph - N/A   Clear
3:53 AM 82.0 °F 88.6 °F 75.0 °F 79% 29.92 in 10.0 mi SSE 3.5 mph - N/A   Clear
4:53 AM 82.0 °F 88.6 °F 75.0 °F 79% 29.94 in 10.0 mi South 3.5 mph - N/A   Clear
5:53 AM 81.0 °F 86.7 °F 75.0 °F 82% 29.96 in 10.0 mi Calm Calm - N/A   Clear
6:53 AM 81.0 °F 87.3 °F 75.9 °F 85% 29.95 in 9.0 mi Calm Calm - N/A   Clear
7:53 AM 84.0 °F 91.2 °F 73.9 °F 72% 29.95 in 10.0 mi NE 6.9 mph - N/A   Partly Cloudy
8:53 AM 84.0 °F 91.2 °F 73.9 °F 72% 29.98 in 10.0 mi ENE 3.5 mph - N/A   Partly Cloudy
9:53 AM 86.0 °F 95.1 °F 75.0 °F 70% 29.99 in 10.0 mi NNE 5.8 mph - N/A   Partly Cloudy
10:53 AM 89.1 °F 100.2 °F 75.9 °F 65% 29.99 in 10.0 mi North 5.8 mph - N/A   Partly Cloudy
11:53 AM 90.0 °F 100.2 °F 75.0 °F 61% 29.98 in 10.0 mi North 8.1 mph - N/A   Scattered Clouds
12:53 PM 91.0 °F 100.4 °F 73.9 °F 57% 29.98 in 10.0 mi NNE 8.1 mph - N/A   Scattered Clouds
1:53 PM 93.0 °F 101.9 °F 73.0 °F 52% 29.98 in 8.0 mi NNE 8.1 mph - N/A   Scattered Clouds
2:53 PM 93.9 °F 102.1 °F 72.0 °F 49% 29.96 in 10.0 mi NE 6.9 mph - N/A   Scattered Clouds
3:53 PM 93.9 °F 102.1 °F 72.0 °F 49% 29.94 in 10.0 mi NE 4.6 mph - N/A   Scattered Clouds
4:53 PM 93.9 °F 103.4 °F 73.0 °F 51% 29.94 in 8.0 mi NE 5.8 mph - N/A   Clear
5:53 PM 93.0 °F 100.7 °F 72.0 °F 50% 29.94 in 9.0 mi East 6.9 mph - N/A   Clear
6:53 PM 91.0 °F 98.2 °F 72.0 °F 53% 29.94 in 10.0 mi East 8.1 mph - N/A   Clear
7:53 PM 90.0 °F 96.9 °F 72.0 °F 55% 29.96 in 10.0 mi ESE 8.1 mph - N/A   Clear
8:53 PM 87.1 °F 96.3 °F 75.0 °F 67% 29.98 in 10.0 mi South 9.2 mph - N/A   Clear
9:53 PM 87.1 °F 95.4 °F 73.9 °F 65% 29.99 in 10.0 mi SSE 9.2 mph - N/A   Clear
10:53 PM 84.0 °F 92.6 °F 75.9 °F 76% 30.01 in 10.0 mi South 6.9 mph - N/A   Clear
11:53 PM 84.0 °F 92.6 °F 75.9 °F 76% 30.01 in 10.0 mi South 4.6 mph - N/A   Clear